{"data":{"norad_id":66355,"intl_designator":"2025-254H","name":"STARLINK-35861","alt_names":[],"object_type":"PAYLOAD","status":"ACTIVE","operator":null,"country":"US","launch_date":"2025-11-06","launch_site_code":"AFWTR","launch_vehicle":null,"mission":null,"orbit_class":"UNKNOWN","rcs_meters":null,"size_class":null,"mass_kg":null,"dimensions":null,"purposes":["comms"],"wikipedia_slug":null,"has_3d_model":false,"image_url":null,"decayed_at":null,"tle_current":{"epoch":"2026-05-24T23:37:59.897856Z","epoch_age_seconds":79920,"freshness":"FRESH","line1":"1 66355U 25254H   26144.98472104  .00019258  00000+0  66064-3 0  9994","line2":"2 66355  53.1610 238.2925 0001270  87.9743 272.1404 15.30199583 30650","mean_motion":15.30199583,"eccentricity":0.000127,"inclination_deg":53.161,"raan_deg":238.2925,"arg_perigee_deg":87.9743,"mean_anomaly_deg":272.1404,"bstar":0.00066064,"rev_number":3065,"period_min":94.105371351418,"perigee_km":474.3459386355,"apogee_km":476.08669037738,"semimajor_km":6853.3533145064,"source":"CELESTRAK","updated_at":"2026-05-25T13:38:21.175257Z"}}}